EW4921 Weather Reports


Display with metric or nautical units.
time (UTC)temp
F
wind
direction
speed
MPH
gust
MPH
rain 1hr
in
rain 24hr
in
rain mn
in
humidity
%
barometer
mb
20260503041521 58 277 0.0 0.0 0.00 0.01 0.01 83 1012.5
20260503041057 58 277 0.0 0.0 0.00 0.01 0.01 83 1012.4
20260503040604 58 277 0.0 0.0 0.00 0.01 0.01 82 1012.4
20260503040029 58 277 0.0 0.0 0.00 0.01 0.01 82 1012.3
20260503035522 59 277 0.0 0.0 0.00 0.01 0.01 81 1012.3
20260503035031 59 279 0.0 0.0 0.00 0.01 0.01 81 1012.1
20260503034544 59 279 0.0 0.0 0.00 0.01 0.01 80 1011.9
20260503034054 59 279 0.0 0.0 0.00 0.01 0.01 80 1011.9
20260503033534 60 279 0.0 0.0 0.00 0.01 0.01 79 1011.9
20260503033025 60 279 0.0 0.0 0.00 0.01 0.01 79 1011.7
20260503032526 61 279 0.0 0.0 0.00 0.01 0.01 78 1011.7
20260503032035 61 279 0.0 3.0 0.00 0.01 0.01 78 1011.5
20260503031535 62 346 0.0 2.0 0.00 0.01 0.01 77 1011.4
20260503031032 62 346 0.0 2.0 0.00 0.01 0.01 76 1011.6
20260503030607 62 342 0.0 2.0 0.00 0.01 0.01 76 1011.5
20260503030048 63 300 0.0 0.0 0.00 0.01 0.01 75 1011.3
20260503025522 63 300 0.0 0.0 0.00 0.01 0.01 74 1011.3
20260503025019 64 300 0.0 0.0 0.00 0.01 0.01 74 1011.2
20260503024519 64 300 0.0 0.0 0.00 0.01 0.01 73 1011.3
20260503024033 65 300 0.0 0.0 0.00 0.01 0.01 73 1011.2
20260503023535 65 300 0.0 0.0 0.00 0.01 0.01 72 1011.1
20260503023043 65 300 0.0 0.0 0.00 0.01 0.01 71 1011.0
20260503022515 66 300 0.0 0.0 0.00 0.01 0.01 71 1011.0
20260503022027 66 300 0.0 3.0 0.00 0.01 0.01 70 1010.9
20260503021526 67 300 0.0 1.0 0.00 0.01 0.01 70 1010.9
20260503021023 67 301 0.0 0.0 0.00 0.01 0.01 69 1010.7
20260503020619 67 301 0.0 0.0 0.00 0.01 0.01 69 1010.7
20260503020053 68 301 0.0 0.0 0.00 0.01 0.01 69 1010.8
20260503015533 68 301 0.0 0.0 0.00 0.01 0.01 68 1010.8
20260503015046 68 301 0.0 0.0 0.00 0.01 0.01 68 1010.7
20260503014539 69 301 0.0 0.0 0.00 0.01 0.01 68 1010.7
20260503014026 69 301 0.0 0.0 0.00 0.01 0.01 67 1010.9
20260503013527 69 301 0.0 1.0 0.00 0.01 0.01 67 1010.9
20260503013026 69 301 0.0 3.0 0.00 0.01 0.01 66 1010.9
20260503012539 70 319 0.0 3.0 0.00 0.01 0.01 66 1010.9
20260503012031 70 304 0.0 2.0 0.00 0.01 0.01 66 1010.9
20260503011522 70 275 0.0 4.0 0.00 0.01 0.01 65 1010.8
20260503011037 71 332 0.0 4.0 0.00 0.01 0.01 65 1010.8
20260503010602 71 311 0.0 1.0 0.00 0.01 0.01 65 1010.8
20260503010028 71 229 0.0 0.0 0.00 0.01 0.01 64 1010.7
20260503005539 71 229 0.0 0.0 0.00 0.01 0.01 64 1010.7
20260503005029 71 225 0.0 0.0 0.00 0.01 0.01 63 1010.9
20260503004526 72 228 0.0 0.0 0.00 0.01 0.01 64 1011.0
20260503004026 72 228 0.0 4.0 0.00 0.01 0.01 64 1010.9
20260503003547 72 228 0.0 4.0 0.00 0.01 0.01 62 1010.9
20260503003017 72 229 0.0 3.0 0.00 0.01 0.01 62 1011.0
20260503002534 72 360 0.0 3.0 0.00 0.01 0.01 62 1010.9
20260503002024 73 300 0.0 3.0 0.00 0.01 0.01 62 1010.8
20260503001519 73 299 0.0 2.0 0.00 0.01 0.01 63 1010.9
20260503001027 73 298 0.0 2.0 0.00 0.01 0.01 62 1010.9
20260503000550 73 306 0.0 1.0 0.00 0.01 0.01 62 1011.0
20260503000032 73 312 0.0 4.0 0.00 0.01 0.01 61 1010.9
20260502235532 73 303 0.0 4.0 0.00 0.01 0.01 62 1011.0
20260502235019 73 345 0.0 1.0 0.00 0.01 0.01 62 1011.1
20260502234521 73 346 0.0 3.0 0.00 0.01 0.01 61 1011.1
20260502234032 73 355 0.0 3.0 0.00 0.01 0.01 62 1011.1
20260502233536 73 314 0.0 4.0 0.00 0.01 0.01 62 1011.2
20260502233027 73 5 0.0 4.0 0.00 0.01 0.01 62 1011.2
20260502232527 73 328 0.0 4.0 0.00 0.01 0.01 62 1011.2
20260502232034 73 232 1.0 8.0 0.00 0.01 0.01 62 1011.3
20260502231535 73 188 2.0 8.0 0.00 0.01 0.01 61 1011.4
20260502231025 73 344 0.0 6.0 0.00 0.01 0.01 61 1011.3
20260502230550 74 229 1.0 6.0 0.00 0.01 0.01 61 1011.4
20260502230043 74 232 0.0 5.0 0.00 0.01 0.01 61 1011.6
20260502225521 74 301 2.0 5.0 0.00 0.01 0.01 61 1011.7
20260502225056 74 311 2.0 5.0 0.00 0.01 0.01 62 1011.7
20260502224537 73 334 1.0 4.0 0.00 0.01 0.01 63 1011.7
20260502224028 73 290 0.0 3.0 0.00 0.01 0.01 63 1011.8
20260502223522 73 355 0.0 4.0 0.00 0.01 0.01 64 1012.1
20260502223031 73 229 0.0 4.0 0.00 0.01 0.01 63 1012.2
20260502222546 73 342 0.0 4.0 0.00 0.01 0.01 64 1012.3
20260502222025 73 348 0.0 9.0 0.00 0.01 0.01 62 1012.5
20260502221525 74 190 0.0 9.0 0.00 0.01 0.01 62 1012.4
20260502221022 74 338 3.0 8.0 0.00 0.01 0.01 62 1012.6
20260502220546 74 325 3.0 8.0 0.00 0.01 0.01 62 1012.6
20260502220048 75 333 2.0 6.0 0.00 0.01 0.01 61 1012.6
20260502215527 75 88 2.0 5.0 0.00 0.01 0.01 60 1012.7
20260502215021 75 231 2.0 8.0 0.00 0.01 0.01 60 1012.7
20260502214523 75 234 3.0 7.0 0.00 0.01 0.01 60 1012.8
20260502214021 75 324 0.0 6.0 0.00 0.01 0.01 61 1012.9
20260502213538 75 213 1.0 6.0 0.00 0.01 0.01 61 1012.9
20260502213025 75 329 1.0 8.0 0.00 0.01 0.01 59 1013.0
20260502212525 76 222 3.0 9.0 0.00 0.01 0.01 60 1013.1
20260502212020 76 220 2.0 9.0 0.00 0.01 0.01 60 1013.2
20260502211515 75 298 0.0 7.0 0.00 0.01 0.01 62 1013.2
20260502211055 75 316 1.0 7.0 0.00 0.01 0.01 61 1013.2
20260502210549 75 214 0.0 4.0 0.00 0.01 0.01 62 1013.2
20260502210032 75 324 0.0 5.0 0.00 0.01 0.01 61 1013.3
20260502205533 76 329 0.0 5.0 0.00 0.01 0.01 61 1013.3
20260502205023 76 143 1.0 8.0 0.00 0.01 0.01 63 1013.4
20260502204539 75 246 3.0 8.0 0.00 0.01 0.01 61 1013.5
20260502204028 75 200 0.0 9.0 0.00 0.01 0.01 62 1013.4
20260502203522 75 194 2.0 10.0 0.00 0.01 0.01 63 1013.4
20260502203033 75 167 2.0 10.0 0.00 0.01 0.01 62 1013.4
20260502202535 75 250 4.0 7.0 0.00 0.01 0.01 62 1013.3
20260502202044 75 237 1.0 7.0 0.00 0.01 0.01 63 1013.4
20260502201525 75 337 1.0 8.0 0.00 0.01 0.01 62 1013.5
20260502201033 75 319 1.0 6.0 0.00 0.01 0.01 60 1013.4
20260502200603 76 10 1.0 6.0 0.00 0.01 0.01 61 1013.4
20260502200026 76 360 0.0 4.0 0.00 0.01 0.01 62 1013.4
20260502195521 76 234 0.0 5.0 0.00 0.01 0.01 62 1013.4
20260502195032 76 232 1.0 10.0 0.00 0.01 0.01 60 1013.5
20260502194547 75 215 0.0 10.0 0.00 0.01 0.01 62 1013.7
20260502194022 75 316 0.0 1.0 0.00 0.01 0.01 63 1013.8
20260502193516 74 315 0.0 1.0 0.00 0.01 0.01 61 1013.8
20260502193015 74 203 0.0 2.0 0.00 0.01 0.01 63 1013.9
20260502192535 73 236 0.0 2.0 0.00 0.01 0.01 64 1013.9
20260502192025 73 238 0.0 3.0 0.00 0.01 0.01 66 1013.9
20260502191541 72 236 1.0 3.0 0.00 0.01 0.01 66 1014.0
20260502191029 71 171 0.0 3.0 0.00 0.01 0.01 68 1014.1
20260502190554 71 249 0.0 3.0 0.00 0.01 0.01 69 1014.2
20260502190035 71 219 0.0 4.0 0.00 0.01 0.01 67 1014.3
20260502185558 71 221 0.0 5.0 0.00 0.01 0.01 70 1014.4
20260502185024 70 219 0.0 6.0 0.00 0.01 0.01 70 1014.6
20260502184523 70 227 0.0 5.0 0.00 0.01 0.01 71 1014.5
20260502184017 70 236 0.0 6.0 0.00 0.01 0.01 71 1014.6
20260502183536 69 242 2.0 6.0 0.00 0.01 0.01 70 1014.8
20260502183022 69 167 2.0 7.0 0.00 0.01 0.01 71 1014.7
20260502182523 69 186 0.0 8.0 0.00 0.01 0.01 72 1014.8
20260502182029 68 214 1.0 8.0 0.00 0.01 0.01 73 1014.7
20260502181526 68 179 3.0 7.0 0.00 0.01 0.01 74 1014.7
20260502181015 67 202 3.0 7.0 0.00 0.01 0.01 75 1014.7
20260502180607 66 172 4.0 7.0 0.00 0.01 0.01 76 1014.7
20260502164020 58 77 0.0 2.0 0.00 0.01 0.01 93 1015.4
20260502163522 57 77 0.0 2.0 0.00 0.01 0.01 93 1015.4
20260502163032 57 77 0.0 1.0 0.00 0.01 0.01 93 1015.4
20260502162528 57 77 0.0 5.0 0.00 0.01 0.01 93 1015.3
20260502162026 57 77 1.0 5.0 0.00 0.01 0.01 93 1015.2
20260502161527 57 81 0.0 4.0 0.00 0.01 0.01 93 1015.2
20260502161018 57 74 1.0 3.0 0.00 0.01 0.01 93 1015.3
20260502160601 56 74 1.0 6.0 0.00 0.01 0.01 93 1015.3
20260502152024 55 160 0.0 8.0 0.00 0.01 0.01 93 1014.9
20260502151519 55 163 2.0 8.0 0.00 0.01 0.01 93 1014.8
20260502151031 55 138 0.0 7.0 0.00 0.01 0.01 93 1014.7
20260502150551 55 82 0.0 1.0 0.00 0.01 0.01 93 1014.6
20260502130611 50 324 0.0 0.0 0.01 0.01 0.01 92 1014.6
20260502123523 49 324 0.0 0.0 0.01 0.01 0.01 92 1014.2
20260502123034 49 324 0.0 0.0 0.01 0.01 0.01 91 1014.2
20260502122531 49 324 0.0 0.0 0.01 0.01 0.01 91 1014.0
20260502122021 49 324 0.0 0.0 0.01 0.01 0.01 91 1014.0
20260502121515 49 324 0.0 0.0 0.00 0.00 0.00 91 1013.9
20260502121035 49 324 0.0 0.0 0.00 0.00 0.00 91 1013.9
20260502120558 49 324 0.0 0.0 0.00 0.00 0.00 91 1014.0
20260502115521 49 324 0.0 0.0 0.00 0.00 0.00 91 1014.0
20260502115020 49 324 0.0 0.0 0.00 0.00 0.00 91 1013.9
20260502114516 49 324 0.0 0.0 0.00 0.00 0.00 91 1013.9
20260502114034 50 324 0.0 0.0 0.00 0.00 0.00 91 1013.9
20260502113536 50 324 0.0 0.0 0.00 0.00 0.00 91 1013.9
20260502113026 50 324 0.0 0.0 0.00 0.00 0.00 91 1013.9
20260502112517 50 324 0.0 0.0 0.00 0.00 0.00 91 1014.0
20260502112027 50 324 0.0 0.0 0.00 0.00 0.00 91 1013.9
20260502111540 50 324 0.0 0.0 0.00 0.00 0.00 91 1013.8
20260502111051 50 324 0.0 0.0 0.00 0.00 0.00 91 1013.8
20260502110554 50 324 0.0 0.0 0.00 0.00 0.00 90 1013.8
20260502110055 51 324 0.0 0.0 0.00 0.00 0.00 91 1013.7
20260502105555 51 324 0.0 0.0 0.00 0.00 0.00 91 1013.7
20260502105025 51 324 0.0 0.0 0.00 0.00 0.00 91 1013.5
20260502104526 51 324 0.0 0.0 0.00 0.00 0.00 90 1013.6
20260502104022 51 324 0.0 0.0 0.00 0.00 0.00 90 1013.6
20260502103521 51 324 0.0 0.0 0.00 0.00 0.00 91 1013.4
20260502103020 51 324 0.0 0.0 0.00 0.00 0.00 91 1013.5
20260502102521 52 324 0.0 0.0 0.00 0.00 0.00 91 1013.5
20260502102018 52 324 0.0 0.0 0.00 0.00 0.00 91 1013.6
20260502101558 52 324 0.0 0.0 0.00 0.00 0.00 91 1013.6
20260502101022 52 324 0.0 0.0 0.00 0.00 0.00 91 1013.5
20260502100547 52 324 0.0 0.0 0.00 0.00 0.00 91 1013.7
20260502091020 52 324 0.0 0.0 0.00 0.00 0.00 90 1013.6
20260502090545 52 324 0.0 0.0 0.00 0.00 0.00 90 1013.7
20260502071517 51 324 0.0 0.0 0.00 0.00 0.00 88 1014.3
20260502071035 51 324 0.0 0.0 0.00 0.00 0.00 88 1014.3
20260502070607 51 324 0.0 0.0 0.00 0.00 0.00 88 1014.3
20260502070030 51 324 0.0 0.0 0.00 0.00 0.00 88 1014.2
20260502065521 52 324 0.0 0.0 0.00 0.00 0.00 88 1014.1
20260502065039 52 324 0.0 0.0 0.00 0.00 0.00 88 1014.2
20260502064557 52 324 0.0 0.0 0.00 0.00 0.00 87 1014.1
20260502064025 52 324 0.0 0.0 0.00 0.00 0.00 87 1014.1
20260502063522 52 324 0.0 0.0 0.00 0.00 0.00 87 1014.1
20260502063029 52 324 0.0 0.0 0.00 0.00 0.00 87 1014.1
20260502062531 52 324 0.0 0.0 0.00 0.00 0.00 87 1014.1
20260502062024 52 324 0.0 0.0 0.00 0.00 0.00 87 1014.1
20260502061538 52 324 0.0 0.0 0.00 0.00 0.00 87 1014.2
20260502061031 52 324 0.0 0.0 0.00 0.00 0.00 87 1014.0
20260502060549 53 324 0.0 0.0 0.00 0.00 0.00 86 1013.9
20260502060034 53 324 0.0 0.0 0.00 0.00 0.00 86 1014.0
20260502055556 53 324 0.0 0.0 0.00 0.00 0.00 86 1014.0
20260502055026 53 324 0.0 0.0 0.00 0.00 0.00 86 1014.0
20260502054524 53 324 0.0 0.0 0.00 0.00 0.00 86 1014.0
20260502054025 53 324 0.0 0.0 0.00 0.00 0.00 86 1014.1
20260502053522 53 324 0.0 0.0 0.00 0.00 0.00 85 1014.1
20260502053014 54 324 0.0 0.0 0.00 0.00 0.00 85 1014.2
20260502052536 54 324 0.0 0.0 0.00 0.00 0.00 85 1014.2
20260502052047 54 324 0.0 0.0 0.00 0.00 0.00 85 1014.2
20260502051547 54 324 0.0 0.0 0.00 0.00 0.00 85 1014.1
20260502051035 54 324 0.0 0.0 0.00 0.00 0.00 85 1014.2
20260502050602 55 324 0.0 0.0 0.00 0.00 0.00 85 1014.2
20260502050027 55 324 0.0 0.0 0.00 0.00 0.00 85 1014.2
20260502045522 55 324 0.0 0.0 0.00 0.00 0.00 84 1014.2
20260502045021 55 324 0.0 0.0 0.00 0.00 0.00 84 1014.2
20260502044537 56 324 0.0 0.0 0.00 0.00 0.00 84 1014.1
20260502044027 56 324 0.0 0.0 0.00 0.00 0.00 84 1014.1
20260502043522 56 324 0.0 0.0 0.00 0.00 0.00 84 1014.1
20260502043021 56 324 0.0 0.0 0.00 0.00 0.00 84 1014.1
20260502042522 56 324 0.0 0.0 0.00 0.00 0.00 84 1014.0
20260502042022 56 324 0.0 0.0 0.00 0.00 0.00 84 1014.0